Retour au catalogue

FENGYUN 2G DEB

ActifMEO
NORAD 43646·DEBRIS·🇨🇳 China

Lancé Dec 31, 2014 depuis Xichang Satellite Launch Center

Loading…

Prochains Passages (prochaines 24 heures)

TLE

FraisSource: Space-Track

Époque: Sep 5, 2026, 02:00 UTC

1 43646U 14090D   26248.08346942  .00000056  00000-0  00000+0 0  9995
2 43646   7.7317  67.2655 0202586 291.3939  66.5931  1.00247146 42506

Suivez FENGYUN 2G DEB en temps réel avec AllMySat

Download on the App Store